Observations for Trim Market St
| Time | AQI | Temp °C | Hum % | Pres Pa | CO μg/m³ | H₂S μg/m³ | NO μg/m³ | NO₂ μg/m³ | O₃ μg/m³ | SO₂ μg/m³ | PM1 μg/m³ | PM2.5 μg/m³ | PM10 μg/m³ |
|---|---|---|---|---|---|---|---|---|---|---|---|---|---|
| Saturday 22 August 2026 | |||||||||||||
| 23:45 | 2 | 16.6 | 63 | 57,657 | 0.25 | 0 | 1.32 | 20.08 | 50.97 | 0 | 2.85 | 5.39 | 8.2 |
| 23:37 | 2 | 16.7 | 62 | 57,687 | 0.25 | 0 | 1.37 | 14.25 | 58.4 | 0 | 1.43 | 4.9 | 10.22 |
| 23:36 | 2 | 16.7 | 62 | 57,691 | 0.25 | 0 | 1.37 | 18.83 | 59.08 | 0 | 2.14 | 4.91 | 7.53 |
| 23:35 | 2 | 16.6 | 62 | 57,697 | 0.26 | 0 | 1.36 | 15.25 | 58.66 | 0 | 2.14 | 4.91 | 6.86 |
| 23:34 | 2 | 16.7 | 62 | 57,702 | 0.23 | 0 | 1.42 | 18.02 | 58.31 | 0 | 2.14 | 5.41 | 7.53 |
| 23:33 | 2 | 16.7 | 62 | 57,711 | 0.24 | 0 | 1.39 | 21.81 | 55.7 | 0 | 2.85 | 5.41 | 8.88 |
| 23:32 | 2 | 16.7 | 62 | 57,718 | 0.23 | 0 | 1.4 | 26.53 | 51.5 | 0 | 2.14 | 5.92 | 9.55 |
| 23:31 | 2 | 16.7 | 62 | 57,728 | 0.24 | 0 | 1.45 | 28.58 | 48.36 | 0 | 2.85 | 4.92 | 7.53 |
| 23:30 | 2 | 16.7 | 62 | 57,733 | 0.24 | 0 | 1.53 | 24.22 | 50.51 | 0 | 2.85 | 5.43 | 8.88 |
| 23:29 | 2 | 16.7 | 62 | 57,740 | 0.25 | 0 | 1.49 | 19.89 | 57.64 | 0 | 1.43 | 4.44 | 7.53 |
| 23:28 | 2 | 16.7 | 62 | 57,747 | 0.23 | 0 | 1.4 | 23.2 | 54.9 | 0 | 1.43 | 4.44 | 8.88 |
| 23:27 | 2 | 16.7 | 62 | 57,754 | 0.22 | 0 | 1.45 | 20.68 | 67.34 | 0 | 2.14 | 4.94 | 7.53 |
| 23:26 | 2 | 16.7 | 62 | 57,761 | 0.23 | 0 | 1.53 | 13.11 | 63.37 | 0 | 2.14 | 5.45 | 8.21 |
| 23:25 | 2 | 16.7 | 61 | 57,764 | 0.23 | 0 | 1.65 | 15.85 | 68.09 | 0 | 2.14 | 5.45 | 8.21 |
| 23:24 | 2 | 16.7 | 61 | 57,770 | 0.23 | 0 | 1.51 | 12.9 | 58.79 | 0 | 3.56 | 6.45 | 8.88 |
| 23:22 | 2 | 16.7 | 61 | 57,777 | 0.28 | 0 | 1.39 | 28.27 | 49.56 | 0 | 1.43 | 3.97 | 5.49 |
| 23:21 | 2 | 16.7 | 61 | 57,781 | 0.26 | 0 | 1.39 | 14.43 | 57.87 | 0 | 3.56 | 5.47 | 7.53 |
| 23:20 | 2 | 16.7 | 61 | 57,784 | 0.27 | 0 | 1.33 | 16.99 | 69.47 | 0 | 3.56 | 6.48 | 8.89 |
| 23:19 | 2 | 16.8 | 61 | 57,788 | 0.24 | 0 | 1.24 | 13.45 | 59.36 | 0 | 3.56 | 6.98 | 11.62 |
| 23:18 | 2 | 16.8 | 61 | 57,790 | 0.23 | 0 | 1.31 | 19.65 | 58.59 | 0 | 2.85 | 5.48 | 7.53 |